Theta_e
350 352 351 352 353 352 351 350 351 351 351 350 350 351 351 349 349 346 344 347 344 351 353 353 354 353 354 353 353 353 350 348 352 352 352 349 350 348 350 349 347 351 350
349 352 350 352 352 353 352 349 350 351 352 350 350 350 346 347 346 347 345 347 346 348 349 351 352 352 352 352 352 351 351 352 352 353 353 352 352 347 348 347 348 350 351
351 352 352 351 352 353 353 351 350 350 352 351 348 347 348 350 351 346 348 345 344 344 344 344 345 345 344 343 344 349 348 346 350 347 347 350 350 350 349 347 348 350 348
349 352 351 349 351 353 352 352 352 352 351 350 345 344 346 347 348 347 345 342 341 340 339 339 339 340 342 342 342 339 341 346 346 345 349 349 349 350 350 350 349 350 350
347 349 352 350 349 352 352 351 351 351 350 348 346 348 347 346 345 345 343 342 341 340 339 337 337 340 341 339 338 339 339 337 342 347 350 349 348 346 346 346 349 349 349
345 345 349 350 352 350 351 351 352 351 349 347 345 347 345 342 341 341 341 340 340 341 343 347 351 352 351 347 343 341 339 336 336 347 349 349 350 347 343 347 346 350 348
344 342 347 350 349 350 350 350 351 352 351 349 348 346 343 344 345 344 348 351 351 350 348 347 350 350 349 348 350 350 349 342 346 346 346 346 347 345 346 343 351 348 348
342 342 347 351 350 348 349 350 350 351 352 350 350 351 350 349 348 345 346 347 349 349 347 346 347 348 347 349 350 348 350 350 350 348 348 347 347 344 346 345 343 344 345
341 342 345 350 352 351 350 350 350 350 351 350 350 350 348 346 347 347 344 342 341 343 344 346 347 350 348 348 347 347 346 348 352 351 350 348 347 343 346 345 344 342 344
343 342 344 350 350 352 353 352 352 351 350 351 350 348 344 342 345 348 344 346 342 341 344 348 349 349 347 346 347 348 350 350 352 353 352 350 342 340 344 344 344 344 341
345 344 344 348 350 352 352 351 351 353 352 352 348 349 346 347 348 348 348 348 349 351 351 351 351 351 349 349 347 347 348 352 348 346 347 348 345 341 340 342 344 344 344
342 342 344 349 349 351 351 352 352 351 349 349 346 344 348 349 350 351 352 351 351 351 349 349 349 350 351 355 356 353 354 353 350 350 345 343 346 345 343 341 342 341 342
343 343 344 348 350 350 351 351 350 349 348 347 338 340 344 348 350 352 354 356 356 355 355 357 357 356 356 356 356 356 355 352 351 348 347 342 339 339 342 344 341 340 339
346 344 344 347 348 349 349 350 348 347 346 344 343 345 349 351 351 352 355 353 352 355 354 355 357 355 357 357 357 353 355 353 351 351 350 349 347 344 340 341 340 343 340
347 344 345 346 341 342 341 347 343 342 342 344 343 346 348 351 353 354 354 352 351 352 356 356 356 354 355 358 356 353 355 355 354 352 351 349 349 349 348 345 347 343 343
346 344 345 344 338 337 340 340 342 345 343 344 346 349 349 351 352 354 354 354 352 352 352 353 354 351 353 357 357 357 356 354 353 353 352 351 347 348 348 348 350 348 342
346 345 344 344 343 340 343 345 347 348 350 350 349 350 351 352 353 352 354 353 353 347 351 348 352 353 354 357 357 355 354 355 352 353 353 353 352 349 348 348 350 348 345
348 346 344 344 346 343 345 346 347 349 352 354 352 352 350 351 353 353 355 358 353 348 346 353 354 353 356 357 356 355 356 355 354 354 355 354 353 351 347 342 342 340 338
348 346 344 344 348 346 346 347 347 350 356 355 354 352 351 353 352 353 356 356 352 352 352 356 357 354 356 357 355 355 355 354 354 353 354 354 352 348 344 338 335 337 341
347 346 345 344 346 347 347 347 350 354 356 355 356 356 354 354 354 353 356 353 353 355 357 357 355 357 358 356 356 352 353 352 352 352 353 353 349 346 340 336 340 343 338
345 345 344 345 344 347 351 353 354 355 355 354 356 353 354 355 354 354 355 354 353 355 357 356 356 354 353 358 355 351 352 350 350 351 353 352 348 344 341 341 342 342 340
344 345 343 342 344 345 351 353 354 354 352 352 354 352 354 354 354 353 353 354 352 355 353 352 352 356 358 357 354 353 354 350 350 352 351 350 348 346 343 342 342 341 340
344 346 345 343 343 345 348 353 352 352 351 354 355 356 354 354 354 354 353 353 353 353 357 353 355 354 357 357 352 352 355 354 353 353 351 348 347 345 342 340 340 340 340
344 346 347 345 344 345 347 352 353 351 350 351 355 355 354 352 353 354 355 355 352 354 354 353 357 355 357 358 357 356 357 356 357 357 352 345 344 341 337 339 340 339 337
344 345 346 346 345 346 346 348 352 351 353 353 355 353 353 353 353 353 355 354 353 353 353 351 353 355 359 359 357 357 358 357 354 353 356 351 345 341 336 337 339 338 336
343 345 346 347 344 345 346 346 345 349 354 355 355 354 354 356 355 351 353 355 352 352 353 354 354 356 356 357 356 358 358 357 355 354 353 348 347 341 337 336 337 334 331
Wind_Speed
6 7 11 15 16 17 17 17 17 16 15 16 15 14 14 15 14 13 11 9 9 10 10 12 12 12 12 12 11 10 10 10 10 11 11 11 11 11 11 9 11 9 12
13 11 13 16 17 17 16 16 15 14 13 13 13 12 11 11 11 10 8 8 8 9 9 9 9 10 11 11 10 10 9 9 9 10 10 8 9 8 8 8 11 10 10
14 13 13 17 16 16 16 15 14 13 11 11 11 10 9 9 7 6 5 5 6 6 6 6 6 7 7 7 7 7 8 8 7 7 8 7 6 7 7 8 9 10 11
15 14 14 16 16 14 14 14 13 12 10 10 9 8 7 5 5 3 3 3 3 3 3 4 4 4 4 4 5 5 4 4 4 4 4 3 3 5 7 7 8 8 10
15 14 15 15 14 13 13 13 12 11 10 9 8 6 4 3 2 0 1 2 3 4 4 5 5 6 6 5 4 3 2 1 1 1 1 1 3 3 5 5 7 8 9
16 14 15 14 13 12 11 10 10 10 9 8 6 5 3 2 2 3 3 4 4 5 6 6 7 7 7 6 6 6 5 4 3 3 2 2 3 5 6 7 7 9 9
17 14 13 12 11 11 10 10 9 9 8 7 5 5 4 3 3 4 4 5 5 6 7 7 7 6 7 7 6 6 6 6 5 6 5 5 6 6 8 9 10 10 12
16 13 11 11 10 10 12 8 8 7 6 5 5 4 4 4 5 6 6 7 7 7 8 8 8 8 8 8 8 7 7 6 7 8 8 8 10 10 11 14 11 13 14
14 12 11 9 9 9 8 8 7 6 6 6 5 4 5 6 6 7 8 9 9 9 10 10 10 10 11 10 10 10 10 10 8 9 10 10 12 11 10 13 11 12 14
13 12 11 10 9 8 7 8 7 6 6 6 6 6 6 7 8 9 9 11 10 10 11 11 11 11 11 12 11 11 11 13 13 12 11 12 14 13 11 10 14 14 14
13 13 12 10 10 9 8 7 7 7 7 7 7 7 6 7 7 9 10 12 12 11 12 11 12 11 12 13 13 13 13 13 15 16 15 16 16 15 13 10 12 14 16
16 15 13 12 11 9 8 7 7 7 7 7 7 7 7 8 9 10 11 12 13 11 10 11 11 12 12 11 11 13 10 12 12 12 16 15 15 16 14 12 11 14 14
15 14 15 13 12 10 10 8 8 7 7 8 9 8 8 10 11 11 11 9 10 10 10 11 11 10 10 11 11 12 12 15 15 14 16 14 14 13 15 16 15 18 10
15 15 14 14 14 13 10 9 8 8 7 8 8 8 9 11 12 10 9 11 12 10 10 10 11 11 12 12 12 14 13 14 17 14 14 15 16 17 17 14 15 21 9
15 15 15 15 17 15 13 10 10 9 9 9 9 9 10 11 10 8 10 12 12 12 10 9 10 10 12 10 11 13 12 12 11 11 11 16 15 16 16 15 16 17 15
14 15 14 16 17 16 14 12 11 9 9 10 10 10 10 10 9 9 10 11 11 12 12 10 9 10 13 9 10 11 12 11 12 11 12 12 15 13 12 12 14 13 15
17 14 15 16 16 17 16 14 12 10 8 11 12 11 10 11 10 9 10 9 10 12 7 9 10 9 10 10 11 12 12 12 12 12 13 12 11 11 9 8 5 8 12
17 17 17 15 16 19 18 15 13 11 9 8 7 8 9 8 8 8 8 7 9 9 8 8 7 8 9 11 12 14 15 12 12 13 12 10 8 6 5 4 4 6 11
20 20 20 20 17 18 18 16 14 12 9 8 8 7 6 8 9 9 8 9 10 9 7 7 6 8 11 13 14 15 16 15 12 11 9 6 4 4 3 7 11 15 18
20 22 22 23 23 20 16 16 14 12 12 11 9 8 8 9 8 7 8 8 9 9 8 7 9 9 11 12 13 17 16 13 9 8 7 5 5 5 5 10 16 12 11
19 22 24 24 25 21 14 11 12 13 12 11 10 9 10 9 7 8 8 8 9 8 8 9 9 11 12 10 12 17 13 7 5 14 7 5 5 6 8 13 11 8 7
21 23 25 27 24 25 18 15 11 10 11 11 10 10 8 5 4 3 6 9 9 9 9 9 10 10 9 9 8 12 6 7 4 10 6 6 8 8 9 11 9 7 7
22 24 27 29 27 25 24 17 14 12 12 9 9 6 6 4 4 7 9 12 13 13 12 10 11 12 11 9 10 4 5 6 17 4 4 6 9 10 9 8 7 7 7
25 21 22 26 27 25 25 18 18 15 14 13 10 8 7 6 7 8 12 13 11 12 13 14 11 13 10 11 9 2 4 6 4 6 4 7 9 7 7 6 5 6 8
19 21 20 23 25 26 25 24 18 17 13 12 9 11 10 9 9 10 13 11 11 12 13 16 15 14 10 9 9 8 8 6 6 4 5 7 6 6 6 4 5 6 7
16 17 18 22 27 27 27 26 24 20 16 13 13 13 12 11 11 13 12 10 9 13 15 16 14 14 12 9 9 7 9 10 11 4 3 2 6 2 3 4 4 6 8
Wind_Direction
145 127 128 129 128 134 137 137 129 123 120 120 121 118 117 113 110 105 101 98 92 87 85 84 89 96 95 95 99 100 102 104 98 102 104 112 117 126 132 143 137 134 143
140 131 131 131 134 136 141 143 137 133 127 127 127 125 118 113 113 105 103 90 86 86 81 85 90 92 92 93 93 92 101 99 103 102 98 104 117 126 137 147 145 154 145
136 131 132 131 135 134 138 144 147 145 138 137 133 132 119 104 103 101 106 87 83 83 84 81 79 77 77 77 76 80 84 95 102 109 111 105 131 139 149 154 153 154 154
141 135 136 134 137 139 138 146 150 150 146 143 148 143 127 111 111 117 106 79 65 42 32 32 32 29 33 42 50 52 62 85 115 122 100 119 115 182 162 169 168 169 167
145 143 139 142 144 141 143 148 149 147 150 155 161 146 144 137 141 128 302 331 335 336 335 336 345 348 345 343 350 347 347 312 225 60 346 176 170 185 188 185 186 188 179
150 148 150 142 146 151 154 158 158 161 162 168 168 168 183 214 254 271 281 291 307 318 321 329 334 330 329 329 330 325 316 301 302 280 279 256 233 220 205 210 205 192 198
155 155 155 148 161 157 163 169 171 174 177 182 186 198 227 256 274 279 292 302 303 308 309 309 312 310 310 312 312 311 304 299 286 278 270 259 241 248 243 232 219 208 208
161 161 162 157 174 178 171 179 185 187 185 197 204 219 241 260 276 286 291 297 303 302 301 304 307 311 309 307 307 303 298 296 290 270 268 266 258 261 259 227 223 216 213
168 169 171 175 184 187 186 185 192 202 200 207 223 231 248 262 278 289 294 298 301 304 306 308 311 312 309 310 308 306 306 300 287 278 276 275 274 275 273 232 232 227 225
177 183 187 185 189 189 192 200 200 214 221 223 239 251 264 282 291 296 297 306 306 309 308 311 311 310 312 307 301 302 307 306 296 294 281 278 282 274 270 235 241 241 233
189 196 199 201 197 199 199 211 214 228 235 245 263 269 285 281 292 299 297 302 304 304 308 314 315 317 319 313 311 311 310 304 303 299 290 288 286 275 263 261 256 264 262
195 202 204 206 204 203 207 222 228 238 243 247 255 265 276 283 294 298 301 306 306 313 308 306 312 310 306 299 303 311 300 294 293 289 291 290 281 278 270 247 248 242 263
200 203 209 208 210 209 216 224 237 243 250 259 256 265 280 291 300 303 303 309 313 309 300 302 297 297 292 294 296 295 293 292 283 286 285 279 279 276 269 254 250 225 287
205 210 210 211 215 218 223 232 241 250 258 257 262 269 281 292 302 307 305 306 307 311 303 308 316 308 299 297 299 301 298 299 304 297 287 290 280 273 266 262 245 233 257
207 212 211 211 217 220 225 232 239 249 253 259 269 275 282 289 295 309 316 319 321 321 312 308 318 329 321 302 300 308 303 297 295 297 297 304 305 295 278 265 254 235 236
210 211 211 213 215 217 220 224 234 251 263 269 271 277 281 289 293 300 315 319 318 315 308 304 311 316 335 319 303 310 317 307 311 311 311 308 318 314 299 272 258 260 243
211 210 211 210 210 214 219 225 236 251 265 272 274 275 279 286 290 293 310 321 324 322 320 324 319 314 321 326 319 322 319 310 307 310 311 310 309 325 324 316 296 261 260
211 212 212 210 214 216 221 227 236 250 262 269 274 278 279 292 287 293 301 314 328 336 316 323 322 321 325 332 324 322 319 314 307 313 312 315 323 335 349 345 319 308 295
215 216 217 218 219 222 229 236 244 254 252 263 274 277 287 293 285 282 293 304 323 334 322 318 311 317 326 331 329 324 319 314 313 320 325 330 338 341 345 323 322 319 320
219 223 224 224 225 229 233 241 244 240 250 259 264 276 296 295 293 283 279 298 310 310 313 304 311 310 315 323 324 322 320 314 325 345 336 330 328 317 320 319 328 340 351
218 223 226 223 226 223 223 223 226 234 244 253 258 277 292 305 292 277 274 286 303 301 310 327 327 327 330 327 329 331 320 310 306 341 332 338 327 316 318 321 340 351 357
223 223 226 226 224 223 219 217 218 234 249 246 257 272 301 299 305 279 289 293 295 297 306 321 330 327 325 336 337 326 330 342 310 334 352 346 329 325 326 340 350 357 355
223 222 222 223 224 222 220 218 229 240 242 242 249 267 307 309 293 277 293 295 290 291 289 296 305 325 325 327 336 331 325 338 334 36 16 358 343 331 339 352 358 357 351
227 223 222 223 219 220 221 219 222 227 232 232 236 254 275 299 306 308 298 298 282 285 292 306 295 321 307 319 329 306 279 292 327 325 -0 352 349 352 359 9 6 358 351
225 219 215 218 218 217 219 222 225 234 244 244 245 253 262 276 282 304 319 293 273 283 289 296 299 312 302 302 324 325 319 309 263 269 310 332 347 14 14 19 12 7 359
220 216 212 211 218 219 221 224 227 229 236 244 250 258 268 273 278 284 308 301 278 284 292 289 293 300 301 299 314 305 306 317 314 286 265 279 325 346 19 29 20 11 10